| time (UTC) | temp F | wind direction | speed knots | gust knots | rain 1hr in | rain 24hr in | rain mn in | humidity % | barometer mb |
| 20260508030054 | 34 | 109 | 1.7 | 5.2 | 0.00 | 0.09 | 0.07 | 76 | 988.9 |
| 20260508024553 | 33 | 8 | 1.7 | 4.3 | 0.00 | 0.24 | 0.07 | 77 | 989.0 |
| 20260508023053 | 35 | 81 | 0.9 | 3.5 | 0.00 | 0.24 | 0.07 | 73 | 989.0 |
| 20260508021559 | 35 | 81 | 1.7 | 7.0 | 0.00 | 0.24 | 0.07 | 71 | 989.0 |
| 20260508014557 | 35 | 126 | 4.3 | 7.8 | 0.00 | 0.34 | 0.07 | 71 | 989.0 |
| 20260508013058 | 36 | 135 | 5.2 | 9.6 | 0.00 | 0.34 | 0.07 | 69 | 989.1 |
| 20260508011603 | 36 | 136 | 1.7 | 7.8 | 0.00 | 0.34 | 0.07 | 69 | 989.1 |
| 20260508010050 | 36 | 102 | 1.7 | 7.0 | 0.00 | 0.34 | 0.07 | 69 | 988.9 |
| 20260508004554 | 36 | 137 | 4.3 | 8.7 | 0.00 | 0.37 | 0.07 | 69 | 988.9 |
| 20260508003052 | 36 | 126 | 1.7 | 7.8 | 0.00 | 0.37 | 0.07 | 68 | 988.9 |
| 20260508001611 | 36 | 165 | 5.2 | 10.4 | 0.00 | 0.37 | 0.07 | 68 | 988.9 |
| 20260508000051 | 37 | 141 | 6.1 | 14.8 | 0.00 | 0.37 | 0.07 | 66 | 988.8 |
| 20260507234549 | 38 | 180 | 9.6 | 20.9 | 0.00 | 0.52 | 0.07 | 63 | 988.7 |
| 20260507233050 | 39 | 175 | 8.7 | 14.8 | 0.00 | 0.52 | 0.07 | 62 | 988.3 |
| 20260507231555 | 40 | 120 | 13.0 | 21.7 | 0.00 | 0.52 | 0.07 | 59 | 988.2 |
| 20260507230048 | 40 | 147 | 10.4 | 19.1 | 0.00 | 0.52 | 0.07 | 58 | 988.2 |
| 20260507224558 | 40 | 139 | 13.9 | 21.7 | 0.00 | 0.55 | 0.07 | 58 | 988.1 |
| 20260507223055 | 41 | 156 | 11.3 | 23.5 | 0.00 | 0.55 | 0.07 | 58 | 988.1 |
| 20260507221552 | 41 | 124 | 10.4 | 21.7 | 0.00 | 0.55 | 0.07 | 57 | 987.9 |
| 20260507220052 | 41 | 165 | 11.3 | 23.5 | 0.00 | 0.55 | 0.07 | 58 | 988.0 |
| 20260507214554 | 42 | 137 | 13.0 | 21.7 | 0.00 | 0.57 | 0.07 | 58 | 988.0 |
| 20260507213054 | 42 | 149 | 11.3 | 20.9 | 0.00 | 0.57 | 0.07 | 59 | 987.9 |
| 20260507211554 | 42 | 137 | 8.7 | 20.0 | 0.00 | 0.57 | 0.07 | 62 | 987.7 |
| 20260507210053 | 42 | 125 | 11.3 | 18.2 | 0.00 | 0.57 | 0.07 | 61 | 987.7 |
| 20260507204559 | 44 | 127 | 9.6 | 18.2 | 0.00 | 0.61 | 0.07 | 61 | 987.5 |
| 20260507203052 | 42 | 129 | 10.4 | 18.2 | 0.00 | 0.61 | 0.07 | 62 | 987.4 |
| 20260507201558 | 41 | 95 | 9.6 | 19.1 | 0.00 | 0.61 | 0.07 | 65 | 987.3 |
| 20260507200049 | 42 | 119 | 12.2 | 21.7 | 0.00 | 0.61 | 0.07 | 64 | 987.3 |
| 20260507194551 | 43 | 163 | 11.3 | 22.6 | 0.00 | 0.66 | 0.07 | 67 | 987.3 |
| 20260507193054 | 44 | 128 | 12.2 | 20.9 | 0.00 | 0.66 | 0.07 | 65 | 987.2 |
| 20260507191556 | 45 | 152 | 14.8 | 21.7 | 0.00 | 0.66 | 0.07 | 65 | 987.1 |
| 20260507190055 | 46 | 134 | 12.2 | 22.6 | 0.00 | 0.66 | 0.07 | 63 | 986.9 |
| 20260507184550 | 46 | 107 | 9.6 | 15.6 | 0.00 | 0.78 | 0.07 | 62 | 986.9 |
| 20260507183055 | 46 | 130 | 7.8 | 17.4 | 0.00 | 0.78 | 0.07 | 67 | 987.1 |
| 20260507181601 | 44 | 130 | 7.0 | 13.9 | 0.00 | 0.78 | 0.07 | 72 | 987.2 |
| 20260507180050 | 43 | 108 | 7.8 | 13.9 | 0.00 | 0.78 | 0.07 | 79 | 987.3 |
| 20260507174557 | 42 | 141 | 7.0 | 15.6 | 0.03 | 0.89 | 0.07 | 82 | 987.5 |
| 20260507173051 | 42 | 143 | 5.2 | 13.9 | 0.07 | 0.89 | 0.07 | 90 | 987.3 |
| 20260507171602 | 40 | 87 | 7.0 | 13.0 | 0.07 | 0.89 | 0.07 | 93 | 987.6 |
| 20260507170054 | 39 | 59 | 1.7 | 7.0 | 0.07 | 0.89 | 0.07 | 95 | 987.8 |
| 20260507164549 | 38 | 117 | 7.0 | 12.2 | 0.03 | 0.87 | 0.03 | 90 | 988.2 |
| 20260507163056 | 40 | 107 | 7.0 | 12.2 | 0.00 | 0.84 | 0.00 | 90 | 988.1 |
| 20260507161555 | 41 | 101 | 7.0 | 13.0 | 0.00 | 0.84 | 0.00 | 88 | 988.1 |
| 20260507160053 | 41 | 91 | 8.7 | 15.6 | 0.00 | 0.84 | 0.00 | 87 | 988.2 |
| 20260507154601 | 42 | 150 | 7.8 | 16.5 | 0.00 | 0.84 | 0.00 | 85 | 988.3 |
| 20260507153100 | 43 | 168 | 5.2 | 13.9 | 0.00 | 0.84 | 0.00 | 85 | 988.3 |
| 20260507151554 | 42 | 120 | 7.8 | 12.2 | 0.00 | 0.84 | 0.00 | 88 | 988.2 |
| 20260507150056 | 41 | 151 | 3.5 | 8.7 | 0.00 | 0.84 | 0.00 | 89 | 988.4 |
| 20260507144553 | 40 | 116 | 5.2 | 9.6 | 0.00 | 0.87 | 0.00 | 91 | 988.3 |
| 20260507143050 | 39 | 112 | 6.1 | 10.4 | 0.00 | 0.87 | 0.00 | 91 | 988.5 |
| 20260507141552 | 39 | 120 | 5.2 | 10.4 | 0.00 | 0.87 | 0.00 | 93 | 988.7 |
| 20260507140053 | 39 | 99 | 3.5 | 7.8 | 0.00 | 0.87 | 0.00 | 93 | 988.7 |
| 20260507134554 | 39 | 180 | 5.2 | 9.6 | 0.00 | 0.88 | 0.00 | 93 | 988.6 |
| 20260507133052 | 39 | 142 | 6.1 | 13.0 | 0.00 | 0.88 | 0.00 | 94 | 988.8 |
| 20260507131600 | 38 | 69 | 6.1 | 11.3 | 0.00 | 0.88 | 0.00 | 95 | 988.8 |
| 20260507130105 | 38 | 80 | 7.0 | 11.3 | 0.00 | 0.88 | 0.00 | 96 | 988.8 |
| 20260507124555 | 38 | 70 | 5.2 | 8.7 | 0.00 | 0.88 | 0.00 | 97 | 988.8 |
| 20260507123054 | 37 | 129 | 2.6 | 7.0 | 0.00 | 0.88 | 0.00 | 98 | 988.5 |
| 20260507121605 | 36 | 112 | 3.5 | 5.2 | 0.00 | 0.88 | 0.00 | 98 | 988.6 |
| 20260507120100 | 36 | 149 | 2.6 | 10.4 | 0.00 | 0.88 | 0.00 | 98 | 988.9 |
| 20260507114609 | 36 | 138 | 4.3 | 10.4 | 0.00 | 0.88 | 0.00 | 98 | 988.9 |
| 20260507113052 | 35 | 96 | 1.7 | 8.7 | 0.00 | 0.88 | 0.00 | 98 | 989.2 |
| 20260507111551 | 35 | 131 | 1.7 | 7.8 | 0.00 | 0.88 | 0.00 | 98 | 989.1 |
| 20260507110052 | 35 | 97 | 3.5 | 7.8 | 0.00 | 0.88 | 0.00 | 98 | 989.0 |
| 20260507104549 | 35 | 143 | 2.6 | 8.7 | 0.00 | 0.88 | 0.00 | 98 | 989.1 |
| 20260507103051 | 35 | 108 | 2.6 | 7.0 | 0.00 | 0.88 | 0.00 | 98 | 988.7 |
| 20260507101552 | 35 | 100 | 2.6 | 7.0 | 0.00 | 0.88 | 0.00 | 98 | 988.5 |
| 20260507100051 | 34 | 140 | 3.5 | 8.7 | 0.00 | 0.88 | 0.00 | 98 | 988.4 |
| 20260507094554 | 34 | 103 | 2.6 | 7.0 | 0.00 | 0.88 | 0.00 | 98 | 988.7 |
| 20260507093059 | 34 | 133 | 2.6 | 7.8 | 0.00 | 0.88 | 0.00 | 98 | 988.4 |
| 20260507091556 | 34 | 126 | 1.7 | 4.3 | 0.00 | 0.88 | 0.00 | 98 | 988.4 |
| 20260507090057 | 34 | 0 | 2.6 | 7.0 | 0.00 | 0.88 | 0.00 | 98 | 988.3 |
| 20260507084554 | 34 | 136 | 2.6 | 9.6 | 0.00 | 0.88 | 0.00 | 98 | 988.3 |
| 20260507083047 | 34 | 0 | 1.7 | 6.1 | 0.00 | 0.88 | 0.00 | 98 | 988.5 |
| 20260507081554 | 34 | 87 | 2.6 | 7.0 | 0.00 | 0.88 | 0.00 | 98 | 988.5 |
| 20260507080052 | 35 | 128 | 0.9 | 6.1 | 0.00 | 0.88 | 0.00 | 98 | 988.2 |
| 20260507074602 | 35 | 145 | 3.5 | 7.8 | 0.00 | 0.92 | 0.00 | 98 | 988.3 |
| 20260507073051 | 35 | 202 | 3.5 | 7.0 | 0.00 | 0.92 | 0.00 | 98 | 988.0 |
| 20260507071550 | 35 | 0 | 0.9 | 4.3 | 0.00 | 0.92 | 0.00 | 98 | 988.5 |
| 20260507070050 | 36 | 180 | 3.5 | 7.8 | 0.00 | 0.92 | 0.00 | 98 | 987.9 |
| 20260507064554 | 36 | 141 | 5.2 | 12.2 | 0.00 | 0.93 | 0.00 | 98 | 988.1 |
| 20260507063048 | 36 | 175 | 6.1 | 10.4 | 0.00 | 0.93 | 0.00 | 99 | 987.7 |
| 20260507061551 | 37 | 167 | 6.1 | 12.2 | 0.00 | 0.93 | 0.00 | 98 | 987.8 |
| 20260507060052 | 37 | 158 | 7.0 | 11.3 | 0.00 | 0.93 | 0.00 | 99 | 987.8 |
| 20260507054631 | 37 | 147 | 7.0 | 10.4 | 0.00 | 0.96 | 0.00 | 98 | 987.8 |
| 20260507053055 | 37 | 195 | 5.2 | 8.7 | 0.00 | 0.96 | 0.00 | 98 | 988.0 |
| 20260507051552 | 38 | 157 | 4.3 | 6.1 | 0.00 | 0.96 | 0.00 | 98 | 988.1 |
| 20260507050057 | 38 | 170 | 3.5 | 7.0 | 0.00 | 0.96 | 0.00 | 98 | 988.0 |
| 20260507044600 | 38 | 150 | 4.3 | 12.2 | 0.00 | 0.96 | 0.00 | 98 | 988.0 |
| 20260507043050 | 38 | 163 | 6.1 | 9.6 | 0.01 | 0.96 | 0.00 | 98 | 988.3 |
| 20260507041600 | 39 | 144 | 1.7 | 7.8 | 0.02 | 0.96 | 0.00 | 98 | 988.4 |
| 20260507040058 | 39 | 160 | 7.0 | 11.3 | 0.02 | 0.96 | 0.00 | 98 | 989.0 |
| 20260507034558 | 39 | 126 | 5.2 | 10.4 | 0.04 | 0.96 | 0.96 | 98 | 988.9 |
| 20260507033053 | 40 | 145 | 6.1 | 13.0 | 0.05 | 0.95 | 0.95 | 98 | 989.0 |
| 20260507031604 | 40 | 144 | 6.1 | 10.4 | 0.07 | 0.94 | 0.94 | 98 | 988.8 |